OPS 4682 DEB, 38442

Orbit data source: Space-Track

OPS 4682 DEB, 38442 is space debris in LEO originally from a launch on Sat, 03 Apr 1965 UTC launched from the Air Force Western Test Range (AFWTR). Debris objects in space refer to the collection of defunct objects orbiting the Earth. Examples of debris include non-operational satellites, rocket bodies, and fragments generated from explosions, collisions, or faulty payload assembly.

Loading next visibility...
Identifier
38442, 1965-027EX
Orbit
LEO
Country
Flag of USUS
Related business
Manufacturer
Unknown
Mission
Spacecraft
Bus & Motor
Unknown
Mass
Unknown
Launch date (UTC)
1965-04-03 (61 years ago)
Launch vehicle
Unknown
Launch site
Air Force Western Test Range (AFWTR)
Object type
Payload
Rocket body
Debris
Shape & HBR
Unknown shape, 0.1 m
Radar Cross Section
Medium (>0.1 m² and <1 m²)

Expand to show TLE details & history
Last TLE update: 2 days ago

TLE from 2 days ago
0 OPS 4682 DEB
1 38442U 65027EX  26174.28001868  .00000259  00000-0  91002-3 0  9995
2 38442  90.2413   5.9405 0030660 218.2603 141.6340 12.93940604588369
Epoch: 2026-06-23T06:43Z
TLE epoch observation values (Epoch: 2026-06-23T06:43:13.613Z)
Latitude
-0.00006°
Longitude
-6.32007°
Altitude
1,307.25 km
Speed
7.194 km/s
True Right ascension
00h 23m 45s
True Declination
0° 00' 00"
Sunlit
Object was in daylight at epoch
Visualization orbit readout
Latitude
Unknown
Longitude
Unknown
Altitude
Unknown
Speed
Unknown
Apparent Right ascension
Unknown
Apparent Declination
Unknown
Sunlit
N/A
Visualization observer readout
Local Sidereal Time
06:18:28
Azimuth
Unknown
Elevation
Unknown
Doppler factor
Unknown
Orbital elements
Apogee altitude
1,306.545 km
Perigee altitude
1,259.567 km
Semi-major axis
7,661.193 km
Eccentricity
0.00307
Inclination
90.2413°
RAAN
5.9405°
Arg. of periapsis
218.2603°
True anomaly
141.85142°
Mean anomaly
141.634°
Eccentric anomaly
141.74277°
Mean motion
3.23667 °/min
Orbital period
111.23 mins
BSTAR
0.00091002
Loading maneuver chart data...
Computing Atmospheric mass density...
Loading historical data...
Loading historical data...
Loading historical data...
Loading historical data...
Loading historical data...
Loading historical data...
Loading historical data...

Documentation

Showing up to 5 results
|